Regional Weather Roundup
Issued by NWS

Home | Current Version | Previous Version | Text Only | Print | Product List | Glossary On
Versions: 1 2 3 4 5 6 7 8 9 10 11 12 13 14 15 16 17 18 19 20 21 22 23 24 25 26 27 28 29 30 31 32 33 34 35 36 37 38 39 40 41 42 43 44 45 46 47 48 49 50
000
ASUS43 KDTX 291101
RWRMI
MICHIGAN HOURLY REGIONAL WEATHER ROUNDUP
NATIONAL WEATHER SERVICE DETROIT/PONTIAC MI
700 AM EDT FRI AUG 29 2014

NOTE: "FAIR" INDICATES FEW OR NO CLOUDS BELOW 12,000 FEET WITH NO
SIGNIFICANT WEATHER AND/OR OBSTRUCTION TO VISIBILITY.

MIZ047>049-052>055-059>063-066>070-074>076-081>083-291200-
SOUTHEAST LOWER MICHIGAN

CITY           SKY/WX    TMP DP  RH WIND       PRES   REMARKS
ADRIAN         MOCLDY    59  51  75 CALM      30.14R
ALMA           MOCLDY    59  55  86 SE5       30.11R
ANN ARBOR      PTCLDY    57  53  86 CALM      30.12R
BAD AXE        CLOUDY    55  53  92 S5        30.15R
CARO           CLOUDY    56  51  84 SE5       30.13R
DETROIT CITY   PTCLDY    63  55  75 SE3       30.13F
DETROIT        MOCLDY    60  55  83 E3        30.13R
FLINT          MOCLDY    61  54  77 SE3       30.12R
GROSSE ILE     CLEAR     63  55  77 E5        30.12S
HILLSDALE      PTCLDY    60  51  71 SE8       30.11F
HOWELL         MOCLDY    57  55  92 SE6       30.11F

CITY           SKY/WX    TMP DP  RH WIND       PRES   REMARKS
JACKSON        MOCLDY    62  50  64 SE10      30.11R
LAMBERTVILLE   PTCLDY    61  50  67 SE3       30.13R
LANSING        CLOUDY    62  53  72 SE8       30.11R
LAPEER         FAIR      55  51  85 E3        30.14S
MASON          CLOUDY    58  53  84 SE5       30.11S
MONROE         PTCLDY    64  55  72 SE7       30.11R
MT. CLEMENS    MOCLDY    62  55  79 E7        30.13S
PONTIAC        MOCLDY    59  54  83 E7        30.12S
PORT HOPE        N/A     59  52  77 S5        30.13R
PORT HURON     MOCLDY    50  50 100 CALM      30.16R
TRI CITIES     MOCLDY    61  53  75 SE5       30.13R
TROY           PTCLDY    60  54  80 CALM      30.15S
SAGINAW HB     CLOUDY    59  54  82 SE3       30.11S
$$
MIZ043>046-050>051-056>058-064>065-071>073-077>080-291200-
SOUTHWEST LOWER MICHIGAN

CITY           SKY/WX    TMP DP  RH WIND       PRES   REMARKS
BATTLE CREEK   MOCLDY    63  48  58 SE7       30.09R
BENTON HARBOR  CLOUDY    65  59  81 SE9       30.02S
BIG RAPIDS     CLOUDY    61  57  88 SE9       30.08R
COLDWATER      CLOUDY    62  52  70 SE5       30.09S
FREMONT        CLOUDY    63  55  77 SE7       30.05R
HOLLAND        CLOUDY    66  58  75 SE9       30.05R
GRAND RAPIDS   MOCLDY    62  58  86 SE7       30.07S
IONIA          PTSUNNY   61  56  83 SE8       30.08F
KALAMAZOO      MOCLDY    63  53  70 SE3       30.09R
LUDINGTON      CLOUDY    64  57  77 SE10      30.02S
MARSHALL       MOCLDY    60  50  69 SE7       30.09S
MOUNT PLEASANT CLOUDY    59  53  83 SE5       30.09S
MUSKEGON       CLOUDY    65  57  75 SE10      30.04S
SOUTH HAVEN    CLOUDY    66  60  80 SE7       30.04S
$$
MIZ016>042-291200-
NORTHERN LOWER MICHIGAN

CITY           SKY/WX    TMP DP  RH WIND       PRES   REMARKS
ALPENA         CLOUDY    54  51  90 SE3       30.12R
BEAVER ISLAND  CLOUDY    59  57  94 SE6       30.05F
BELLAIRE       DRIZZLE   63  53  71 SW3       30.06S
CADILLAC       DRIZZLE   58  55  92 SE7       30.08S
CHARLEVOIX     DRIZZLE   60  54  81 SE6       30.08S
FRANKFORT      LGT RAIN  60  55  83 SE6       30.02S
GAYLORD        MOCLDY    56  51  84 S8        30.09S
GRAYLING       CLOUDY    57  51  80 SE6       30.11S
HARBOR SPRINGS CLOUDY    60  52  75 NE3       30.08R
HOUGHTON LAKE  CLOUDY    57  51  80 E5        30.11S
MANISTEE       CLOUDY    61  54  77 SE8       30.03S
OSCODA         CLOUDY    60  54  78 CALM      30.12R
PELLSTON       LGT RAIN  54  53  97 CALM      30.08R
TRAVERSE CITY  LGT RAIN  60  55  83 VRB3      30.04S
$$
MIZ007>008-015-291200-
EASTERN UPPER MICHIGAN

CITY           SKY/WX    TMP DP  RH WIND       PRES   REMARKS
KINROSS        MOCLDY    54  54 100 SE6       30.08S
MACKINAC ISLAN MOCLDY    58  53  83 SE7       30.08R
NEWBERRY       MOCLDY    51  51  97 SE3       30.05F
S. S. MARIE    MOCLDY    52  50  93 E3        30.08S
$$
MIZ004>006-011>014-085-291200-
CENTRAL UPPER MICHIGAN

CITY           SKY/WX    TMP DP  RH WIND       PRES   REMARKS
MANISTIQUE     LGT RAIN  60  59  96 SE3       30.03S
ESCANABA       CLOUDY    64  57  77 S6        30.00S
MENOMINEE      CLOUDY    61  57  88 SE8       29.98F
SAWYER-GWINN   CLOUDY    59  55  88 S12       30.01S
$$
MIZ001>003-009>011-084-291200-
WESTERN UPPER MICHIGAN

CITY           SKY/WX    TMP DP  RH WIND       PRES   REMARKS
IRON MOUNTAIN  LGT RAIN  58  57  97 CALM      29.99R
HOUGHTON       CLOUDY    60  55  83 S8        29.95F
COPPER HARBOR    N/A     61  56  83 SW8G16    29.95F
$$

ABBREVIATIONS USED IN REMARKS
   TC - TEMPERATURE IN CELSIUS
  WCI - WIND CHILL INDEX
   HX - HEAT INDEX
  VSB - VISIBILITY




USA.gov is the U.S. government's official web portal to all federal, state and local government web resources and services.